Weather History for Grand Marais Airport, MN

Change the Weather History Date:

Friday, February 8, 2013

  Actual Average Record
Temperature  
Mean Temperature 3 °F -  
Max Temperature 17 °F 20 °F 44 °F (1998)
Min Temperature -11 °F 4 °F -18 °F (2014)
Degree Days  
Heating Degree Days 62    
Moisture  
Dew Point -2 °F    
Average Humidity 71    
Maximum Humidity 86    
Minimum Humidity 48    
Precipitation  
Precipitation 0.00 in - - ()
Sea Level Pressure  
Sea Level Pressure 30.26 in    
Wind  
Wind Speed 4 mph (South)    
Max Wind Speed 8 mph    
Max Gust Speed -    
Visibility 9 miles    
Events Snow    
Averages and records for this station are not official NWS values.
T = Trace of Precipitation, MM = Missing Value Source: NWS Daily Summary

Daily Weather History Graph

Daily Weather History Graph

Search for Another Location

Airport:

Trip Planner

Search our weather history database for the weather conditions in past years. The results will help you decide how hot, cold, wet, or windy it might be!

Date:

Astronomy

Feb. 08, 2013 Rise Set
Actual Time 7:18 AM CST 5:13 PM CST
Civil Twilight 6:45 AM CST 5:46 PM CST
Nautical Twilight 6:09 AM CST 6:22 PM CST
Astronomical Twilight 5:33 AM CST 6:58 PM CST
Moon 5:50 AM CST (2/8) 3:45 PM CST (2/8)
Length of Visible Light 11h 00m
Length of Day
9h 55m
Waning Crescent, 3% of the Moon is Illuminated
Feb 8
Waning Crescent
Feb 10
New
Feb 17
First Quarter
Feb 25
Full
Mar 4
Last Quarter

Hourly Weather History & Observations

Time (CST) Temp. Windchill Dew Point Humidity Pressure Visibility Wind Dir Wind Speed Gust Speed Precip Events Conditions
12:14 AM -2.2 °F -16.8 °F -9.4 °F 71% 30.24 in 10.0 mi North 8.1 mph - N/A   Clear
12:34 AM -2.2 °F -15.6 °F -9.4 °F 71% 30.24 in 10.0 mi NNW 6.9 mph - N/A   Scattered Clouds
12:53 AM -4.0 °F - -11.2 °F 71% 30.25 in 10.0 mi Calm Calm - N/A   Scattered Clouds
1:14 AM -4.0 °F - -11.2 °F 71% 30.25 in 10.0 mi Calm Calm - N/A   Scattered Clouds
1:34 AM -2.2 °F - -9.4 °F 71% 30.25 in 10.0 mi Calm Calm - N/A   Clear
1:54 AM -2.2 °F - -9.4 °F 71% 30.25 in 10.0 mi Calm Calm - N/A   Clear
2:13 AM -5.8 °F - -13.0 °F 71% 30.26 in 10.0 mi Calm Calm - N/A   Scattered Clouds
2:34 AM -5.8 °F -14.5 °F -13.0 °F 71% 30.25 in 10.0 mi NNW 3.5 mph - N/A   Scattered Clouds
2:54 AM -7.6 °F -18.8 °F -14.8 °F 71% 30.25 in 10.0 mi NNW 4.6 mph - N/A   Clear
3:34 AM -9.4 °F -22.7 °F -16.6 °F 71% 30.24 in 10.0 mi NNW 5.8 mph - N/A   Clear
3:54 AM -11.2 °F -24.8 °F -18.4 °F 70% 30.24 in 10.0 mi NNW 5.8 mph - N/A   Clear
4:13 AM -7.6 °F -18.8 °F -14.8 °F 71% 30.25 in 10.0 mi NNW 4.6 mph - N/A   Clear
4:34 AM -5.8 °F -18.4 °F -13.0 °F 71% 30.26 in 10.0 mi NW 5.8 mph - N/A   Scattered Clouds
4:54 AM -4.0 °F -12.4 °F -13.0 °F 65% 30.26 in 10.0 mi NW 3.5 mph - N/A   Clear
5:13 AM -4.0 °F -14.6 °F -14.8 °F 60% 30.26 in 10.0 mi WNW 4.6 mph - N/A   Clear
5:33 AM -5.8 °F -16.7 °F -16.6 °F 60% 30.26 in 10.0 mi NW 4.6 mph - N/A   Scattered Clouds
5:53 AM -9.4 °F -20.9 °F -16.6 °F 71% 30.26 in 10.0 mi NNW 4.6 mph - N/A   Clear
6:13 AM -7.6 °F -20.6 °F -14.8 °F 71% 30.27 in 10.0 mi NW 5.8 mph - N/A   Clear
6:34 AM -7.6 °F -18.8 °F -14.8 °F 71% 30.27 in 10.0 mi NNW 4.6 mph - N/A   Scattered Clouds
6:53 AM -9.4 °F -18.6 °F -14.8 °F 77% 30.28 in 10.0 mi NNW 3.5 mph - N/A   Clear
7:14 AM -11.2 °F -20.6 °F -16.6 °F 77% 30.28 in 10.0 mi NNW 3.5 mph - N/A   Clear
7:34 AM -11.2 °F -20.6 °F -16.6 °F 77% 30.29 in 10.0 mi NNW 3.5 mph - N/A   Clear
7:53 AM -9.4 °F - -16.6 °F 71% 30.29 in 10.0 mi Calm Calm - N/A   Clear
8:14 AM -7.6 °F - -14.8 °F 71% 30.30 in 10.0 mi Calm Calm - N/A   Clear
8:34 AM -5.8 °F - -13.0 °F 71% 30.30 in 10.0 mi Calm Calm - N/A   Clear
8:53 AM -0.4 °F - -9.4 °F 66% 30.30 in 10.0 mi Calm Calm - N/A   Clear
9:14 AM 3.2 °F - -9.4 °F 56% 30.30 in 10.0 mi Calm Calm - N/A   Clear
9:34 AM 6.8 °F - -7.6 °F 52% 30.29 in 10.0 mi Calm Calm - N/A   Clear
9:53 AM 10.4 °F - -5.8 °F 48% 30.30 in 10.0 mi Calm Calm - N/A   Clear
10:14 AM 12.2 °F 6.1 °F -4.0 °F 48% 30.31 in 10.0 mi South 3.5 mph - N/A   Clear
10:53 AM 15.8 °F 8.6 °F 1.4 °F 53% 30.32 in 10.0 mi South 4.6 mph - N/A   Clear
11:13 AM 15.8 °F 7.2 °F 3.2 °F 58% 30.31 in 10.0 mi South 5.8 mph - N/A   Clear
11:34 AM 15.8 °F 7.2 °F 3.2 °F 58% 30.31 in 10.0 mi South 5.8 mph - N/A   Clear
11:53 AM 17.6 °F 12.3 °F 3.2 °F 53% 30.30 in 10.0 mi SSW 3.5 mph - N/A   Clear
12:14 PM 17.6 °F 10.7 °F 3.2 °F 53% 30.30 in 10.0 mi South 4.6 mph - N/A   Clear
12:34 PM 17.6 °F 10.7 °F 3.2 °F 53% 30.29 in 10.0 mi SSE 4.6 mph - N/A   Clear
12:53 PM 17.6 °F 9.3 °F 1.4 °F 49% 30.29 in 10.0 mi SSE 5.8 mph - N/A   Clear
1:13 PM 17.6 °F 9.3 °F 1.4 °F 49% 30.29 in 10.0 mi SSE 5.8 mph - N/A   Clear
1:34 PM 17.6 °F 9.3 °F 1.4 °F 49% 30.29 in 10.0 mi South 5.8 mph - N/A   Clear
1:53 PM 15.8 °F 6.1 °F 3.2 °F 58% 30.29 in 10.0 mi SSE 6.9 mph - N/A   Clear
2:13 PM 15.8 °F 6.1 °F 3.2 °F 58% 30.28 in 10.0 mi SSE 6.9 mph - N/A   Clear
2:34 PM 15.8 °F 7.2 °F 3.2 °F 58% 30.28 in 10.0 mi SSE 5.8 mph - N/A   Clear
2:53 PM 15.8 °F 8.6 °F 5.0 °F 62% 30.28 in 10.0 mi SSE 4.6 mph - N/A   Clear
3:13 PM 15.8 °F 10.2 °F 5.0 °F 62% 30.27 in 10.0 mi SSE 3.5 mph - N/A   Clear
3:34 PM 14.0 °F 6.5 °F 5.0 °F 67% 30.27 in 10.0 mi SSE 4.6 mph - N/A   Clear
3:53 PM 12.2 °F 2.9 °F 5.0 °F 73% 30.27 in 10.0 mi South 5.8 mph - N/A   Clear
4:14 PM 12.2 °F 1.7 °F 6.8 °F 79% 30.27 in 10.0 mi SSE 6.9 mph - N/A Snow Light Snow
4:34 PM 10.4 °F 4.0 °F 6.8 °F 85% 30.27 in 10.0 mi SSE 3.5 mph - N/A Snow Light Snow
4:53 PM 10.4 °F 2.2 °F 6.8 °F 85% 30.27 in 4.0 mi South 4.6 mph - N/A Snow Light Snow
5:34 PM 10.4 °F 2.2 °F 6.8 °F 85% 30.26 in 7.0 mi SSE 4.6 mph - N/A Snow Light Snow
5:54 PM 10.4 °F - 6.8 °F 85% 30.25 in 5.0 mi Calm Calm - N/A Snow Light Snow
6:13 PM 10.4 °F 4.0 °F 6.8 °F 85% 30.25 in 7.0 mi SE 3.5 mph - N/A Snow Light Snow
6:33 PM 10.4 °F 4.0 °F 6.8 °F 85% 30.25 in 7.0 mi South 3.5 mph - N/A Snow Light Snow
6:54 PM 10.4 °F 4.0 °F 6.8 °F 85% 30.24 in 7.0 mi SSE 3.5 mph - N/A Snow Light Snow
7:13 PM 10.4 °F 4.0 °F 6.8 °F 85% 30.24 in 5.0 mi SE 3.5 mph - N/A Snow Light Snow
7:33 PM 10.4 °F - 6.8 °F 85% 30.24 in 7.0 mi Calm Calm - N/A Snow Light Snow
7:54 PM 10.4 °F 4.0 °F 6.8 °F 85% 30.24 in 7.0 mi SSE 3.5 mph - N/A Snow Light Snow
8:14 PM 10.4 °F 4.0 °F 6.8 °F 85% 30.24 in 7.0 mi South 3.5 mph - N/A Snow Light Snow
8:34 PM 10.4 °F 4.0 °F 6.8 °F 85% 30.24 in 7.0 mi SSE 3.5 mph - N/A Snow Light Snow
8:54 PM 10.4 °F 2.2 °F 6.8 °F 85% 30.24 in 7.0 mi SSE 4.6 mph - N/A Snow Light Snow
9:13 PM 12.2 °F 4.3 °F 6.8 °F 79% 30.24 in 10.0 mi SSE 4.6 mph - N/A Snow Light Snow
9:33 PM 12.2 °F 4.3 °F 6.8 °F 79% 30.23 in 10.0 mi SSE 4.6 mph - N/A Snow Light Snow
9:54 PM 12.2 °F 6.1 °F 6.8 °F 79% 30.22 in 10.0 mi SSE 3.5 mph - N/A Snow Light Snow
10:14 PM 12.2 °F 6.1 °F 8.6 °F 85% 30.22 in 10.0 mi SSE 3.5 mph - N/A Snow Light Snow
10:33 PM 12.2 °F 4.3 °F 8.6 °F 85% 30.21 in 10.0 mi SSE 4.6 mph - N/A Snow Light Snow
10:54 PM 12.2 °F 6.1 °F 8.6 °F 85% 30.21 in 10.0 mi SSE 3.5 mph - N/A Snow Light Snow
11:14 PM 14.0 °F 6.5 °F 8.6 °F 79% 30.20 in 10.0 mi SE 4.6 mph - N/A   Overcast
11:33 PM 14.0 °F 5.1 °F 10.4 °F 86% 30.20 in 10.0 mi SSE 5.8 mph - N/A   Overcast
11:54 PM 15.8 °F 10.2 °F 10.4 °F 79% 30.20 in 10.0 mi SE 3.5 mph - N/A   Overcast